Wetbulb
38.84 41.20 43.38 45.88 46.68 53.50 53.92 51.20 47.98 43.03 45.38 47.66 46.59 49.25 51.26 51.77 51.74 51.96 51.10 52.53 55.20 56.28 57.03 56.85 55.47 54.08 54.27 52.32 49.99 48.73 48.97 48.97 49.37 48.24 48.94 49.01 48.28 47.96
37.56 38.07 39.69 42.91 44.71 45.69 54.19 53.97 51.13 48.72 45.72 48.32 46.04 45.46 49.61 50.85 51.32 51.64 50.76 49.94 53.02 54.74 54.98 54.31 53.89 52.62 52.41 51.37 49.11 48.46 47.97 47.86 46.72 46.96 47.50 47.29 46.88 46.89
35.37 36.26 37.51 40.10 41.77 44.01 45.09 54.20 53.24 51.09 48.47 49.73 43.92 45.23 46.32 48.01 48.28 50.33 49.54 49.93 50.77 52.73 53.93 53.79 53.49 52.08 51.33 50.16 49.19 48.07 47.45 46.68 45.05 45.14 45.66 45.05 45.41 45.71
33.69 34.73 36.20 39.09 39.90 42.27 43.39 47.53 51.76 51.60 49.71 48.40 43.37 40.89 45.03 46.30 45.80 46.86 47.50 48.79 48.54 50.98 53.03 53.06 52.63 51.66 50.67 49.49 48.74 47.57 46.76 44.54 43.60 43.00 42.93 43.23 43.65 44.03
33.12 34.32 34.81 35.76 37.03 39.36 40.91 42.10 50.98 49.85 47.27 42.78 41.38 39.47 40.46 42.49 40.70 41.44 41.72 41.56 45.27 47.08 51.55 51.71 51.81 51.29 50.09 49.42 48.23 47.13 44.59 43.50 42.63 41.64 41.39 41.51 41.72 42.30
32.31 33.83 34.90 35.27 36.23 37.85 39.30 39.90 41.55 48.44 46.95 43.61 40.09 38.75 39.43 39.90 41.19 39.99 38.14 38.65 40.16 41.62 46.42 47.82 49.68 49.86 49.65 49.05 47.72 44.90 43.67 42.62 41.93 41.04 40.86 40.36 40.15 40.84
30.67 32.50 34.27 35.99 36.86 37.71 37.72 39.24 41.36 42.09 47.56 45.22 42.39 38.81 37.77 38.47 40.86 40.35 41.17 38.14 38.08 40.02 40.64 41.88 44.59 44.95 45.88 47.28 44.11 42.98 42.56 41.66 40.81 40.47 40.23 39.57 39.46 39.74
28.70 29.67 31.43 33.55 35.24 37.55 39.23 39.60 41.27 41.03 43.16 46.48 45.09 42.83 43.12 40.02 41.99 40.07 37.64 35.45 34.78 39.29 37.95 37.12 39.80 37.98 39.16 38.62 41.96 42.35 41.72 40.97 40.16 39.59 39.40 38.47 38.67 38.77
28.43 28.86 29.84 32.44 34.32 34.92 36.95 39.00 40.20 42.36 44.25 48.20 46.80 45.07 44.67 41.56 41.98 40.32 39.71 37.53 36.85 38.24 36.61 32.95 36.00 34.96 35.81 37.83 42.48 41.71 41.09 40.25 39.53 39.16 38.58 37.45 37.80 38.19
28.71 29.12 29.51 30.39 32.72 34.47 35.73 37.07 38.19 40.87 42.73 47.57 48.92 48.74 47.76 44.74 42.91 42.68 41.08 37.28 36.71 36.89 36.78 32.82 33.03 30.58 32.62 34.51 41.76 40.76 40.25 39.38 38.96 38.75 37.79 36.72 36.67 37.29
28.10 29.19 30.93 31.41 34.38 36.58 36.63 36.94 37.43 38.81 42.82 44.29 46.52 47.24 45.83 43.58 43.52 41.39 38.15 37.67 33.47 34.57 35.21 33.42 32.87 31.10 30.68 31.97 36.33 39.61 39.24 38.61 38.44 38.36 37.46 36.27 35.35 34.56
26.89 28.85 31.40 31.77 34.25 35.48 34.37 35.67 35.08 36.02 39.99 41.82 45.62 46.84 45.65 43.25 43.39 43.34 40.56 37.46 33.50 33.35 35.62 32.76 32.29 31.90 27.21 30.47 31.70 31.88 32.34 37.53 37.41 37.81 37.46 35.84 34.06 28.66
25.79 26.24 27.80 31.31 32.70 34.10 35.91 34.86 35.06 36.78 37.27 37.70 40.98 44.78 46.00 42.26 42.43 43.13 42.41 41.20 36.37 34.73 37.50 34.49 32.84 31.36 30.22 27.99 28.11 28.72 28.38 29.40 28.65 32.37 36.98 36.56 34.67 31.18
23.94 25.49 27.03 30.39 31.87 32.81 32.94 33.96 35.21 36.95 36.43 36.02 36.95 39.40 44.18 42.52 41.66 42.38 42.59 41.08 38.93 36.57 37.05 35.11 33.87 32.84 29.47 26.23 26.25 27.14 26.54 26.58 26.43 26.83 28.36 35.43 36.64 36.29
24.77 27.18 29.65 30.31 30.88 30.94 32.20 33.05 34.21 34.04 34.23 33.97 36.41 39.09 43.65 43.82 42.52 39.38 35.05 33.65 33.00 33.85 36.38 34.33 34.99 33.67 32.14 29.59 26.06 24.98 25.04 25.93 26.00 26.14 26.07 25.62 26.27 27.12
26.13 25.82 27.58 29.23 30.50 30.26 30.25 30.82 31.90 33.36 33.80 34.32 37.90 40.30 44.12 41.51 39.30 37.79 36.51 36.11 36.19 31.04 30.99 33.40 34.16 35.34 31.31 31.30 28.13 26.43 25.91 22.25 25.27 25.64 25.21 24.97 26.23 27.51
25.55 24.67 24.17 24.79 24.51 25.20 26.44 27.58 29.49 31.78 32.10 35.34 39.13 39.47 38.72 38.33 38.40 38.16 38.58 35.91 35.74 31.18 30.16 29.69 30.61 30.79 29.67 30.03 28.66 28.86 24.86 23.72 25.58 25.36 24.12 22.01 23.82 27.92
22.82 21.53 22.25 23.41 22.67 23.58 24.31 25.29 27.29 30.32 31.76 32.92 38.37 39.43 37.75 37.07 36.94 36.02 38.11 36.78 36.89 32.45 30.69 29.11 29.91 30.11 28.74 27.98 31.04 25.50 22.32 22.61 25.30 24.71 24.24 18.70 18.77 26.70
20.17 20.83 21.00 21.08 21.41 23.38 25.91 26.94 27.85 30.01 32.09 32.21 32.99 38.39 36.80 36.69 36.39 35.11 35.60 36.83 37.75 33.78 32.46 31.07 32.81 34.19 30.27 24.58 22.80 27.85 22.08 22.90 24.08 22.28 19.85 19.39 18.88 24.31
18.44 18.12 18.70 20.84 20.64 21.22 22.53 23.58 25.46 27.63 30.04 31.61 31.55 37.03 36.50 35.83 34.83 34.57 34.86 35.87 35.46 34.73 31.76 32.16 33.83 35.58 36.35 28.86 21.87 19.52 27.24 23.80 24.72 22.62 18.31 19.44 23.59 29.59
15.03 16.52 19.41 19.73 19.58 20.25 22.05 24.19 25.02 26.19 27.59 29.18 31.15 33.61 36.76 35.79 35.69 35.50 35.03 36.72 35.83 34.06 32.29 32.08 34.24 32.70 25.91 27.43 23.77 20.46 20.80 27.04 22.88 22.16 17.76 16.44 15.96 18.66
15.66 16.00 17.50 17.57 18.70 20.32 21.83 22.34 23.18 24.51 25.31 27.13 29.19 30.45 37.21 36.59 36.45 36.02 35.57 34.95 34.05 34.39 33.90 32.97 28.30 28.66 29.63 31.11 25.26 18.67 18.16 19.05 26.43 27.22 26.41 24.37 19.82 17.27
13.44 14.21 14.71 16.12 18.07 19.09 20.44 20.87 21.49 22.94 24.45 26.54 27.78 28.38 36.92 36.03 37.73 37.30 36.21 35.94 34.98 33.93 32.34 28.94 28.40 27.75 25.05 27.62 23.08 18.94 18.59 19.58 19.26 20.76 17.46 27.93 28.20 29.44
MSLP
1024.98 1024.26 1023.37 1022.38 1021.82 1020.84 1020.23 1020.14 1020.64 1020.73 1020.52 1019.69 1020.07 1019.49 1019.76 1020.25 1020.48 1020.93 1021.23 1021.43 1021.78 1022.23 1022.67 1023.00 1023.36 1023.73 1024.05 1024.47 1024.67 1025.00 1025.14 1025.16 1025.06 1024.96 1024.82 1024.54 1024.38 1023.94
1024.80 1024.36 1023.52 1023.05 1022.39 1021.13 1019.78 1019.41 1019.63 1019.82 1019.84 1019.24 1019.24 1019.29 1019.36 1019.66 1019.98 1020.31 1020.70 1021.04 1021.32 1021.69 1022.14 1022.59 1023.09 1023.55 1023.83 1024.20 1024.43 1024.88 1025.01 1025.19 1025.15 1025.07 1024.94 1024.71 1024.52 1024.14
1024.97 1024.61 1023.77 1022.87 1022.73 1021.16 1020.46 1019.04 1018.90 1019.06 1019.26 1018.82 1019.00 1019.21 1019.44 1019.41 1019.81 1019.95 1020.26 1020.67 1020.96 1021.25 1021.62 1022.10 1022.73 1023.26 1023.69 1023.92 1024.26 1024.62 1024.86 1025.08 1025.13 1025.10 1024.96 1024.80 1024.59 1024.35
1024.73 1024.21 1023.47 1023.10 1022.30 1021.15 1020.43 1019.76 1018.29 1018.04 1018.85 1018.67 1018.71 1018.98 1018.99 1019.20 1019.33 1019.89 1020.12 1020.27 1020.55 1020.83 1021.26 1021.67 1022.27 1022.83 1023.27 1023.57 1024.05 1024.48 1024.76 1024.99 1025.07 1025.03 1024.99 1024.83 1024.52 1024.53
1024.97 1024.27 1024.02 1023.01 1022.31 1021.23 1021.36 1020.11 1018.31 1017.49 1018.20 1018.63 1018.42 1018.67 1018.78 1019.04 1019.44 1019.88 1020.16 1020.30 1020.32 1020.52 1020.89 1021.31 1021.81 1022.35 1022.83 1023.14 1023.66 1024.28 1024.75 1024.85 1025.03 1024.80 1024.96 1024.88 1024.72 1024.47
1024.61 1024.05 1023.48 1022.65 1022.12 1021.43 1021.10 1020.30 1019.66 1018.00 1017.71 1017.99 1018.31 1018.63 1018.56 1018.72 1018.70 1019.47 1020.08 1020.13 1020.33 1020.49 1020.71 1020.99 1021.49 1022.05 1022.58 1022.88 1023.43 1023.95 1024.75 1024.92 1024.78 1024.80 1024.88 1024.99 1024.88 1024.69
1024.12 1023.61 1022.78 1022.04 1021.71 1021.66 1021.16 1020.34 1019.62 1018.89 1017.25 1017.32 1017.86 1018.14 1018.29 1018.59 1018.25 1018.68 1019.12 1019.80 1020.19 1020.27 1020.83 1021.12 1021.46 1022.13 1022.54 1022.86 1023.32 1023.60 1024.48 1024.92 1024.74 1024.84 1024.95 1025.15 1024.72 1024.70
1023.28 1022.89 1022.38 1021.73 1021.13 1020.92 1020.89 1020.23 1019.63 1018.59 1018.03 1016.49 1016.39 1016.90 1016.78 1017.48 1017.50 1017.91 1018.95 1019.71 1020.52 1019.75 1020.27 1021.31 1021.45 1022.34 1022.64 1023.15 1023.45 1023.43 1023.95 1024.66 1024.62 1024.55 1024.84 1025.20 1024.84 1024.75
1023.32 1022.45 1021.58 1021.27 1020.65 1020.21 1019.71 1018.99 1018.65 1017.74 1017.59 1015.90 1015.14 1015.37 1015.52 1015.77 1016.48 1017.52 1017.91 1018.38 1018.97 1018.94 1019.51 1021.23 1021.62 1022.69 1022.81 1022.97 1023.34 1023.42 1023.79 1024.26 1024.18 1024.35 1024.86 1025.30 1025.02 1024.94
1022.87 1022.11 1021.32 1020.57 1020.20 1019.68 1018.88 1018.24 1017.48 1016.80 1016.20 1015.41 1014.47 1013.88 1013.93 1014.36 1014.92 1016.00 1017.30 1018.18 1018.59 1018.94 1019.17 1020.88 1021.33 1022.84 1023.14 1023.31 1023.46 1023.60 1023.73 1023.93 1023.85 1024.16 1024.88 1025.08 1025.03 1024.90
1022.20 1021.35 1020.80 1020.12 1019.44 1018.69 1018.02 1017.64 1016.63 1015.90 1014.85 1015.03 1014.44 1013.70 1013.36 1013.81 1014.58 1015.80 1016.90 1017.45 1018.31 1018.71 1019.06 1019.53 1021.15 1022.51 1023.50 1023.39 1023.66 1023.82 1023.88 1023.68 1023.82 1023.95 1024.86 1025.03 1025.06 1025.08
1021.30 1020.62 1020.19 1019.88 1018.99 1018.38 1017.79 1017.19 1016.09 1015.58 1014.48 1013.94 1013.53 1012.99 1013.46 1013.42 1013.67 1013.97 1014.80 1015.95 1016.78 1017.71 1018.03 1018.63 1020.46 1021.31 1023.34 1023.36 1023.77 1023.97 1024.01 1023.60 1023.90 1023.85 1024.72 1024.79 1025.26 1025.38
1020.51 1020.02 1019.60 1019.30 1018.70 1017.94 1017.46 1016.84 1016.10 1015.61 1014.68 1013.93 1013.29 1012.85 1012.48 1012.74 1012.62 1013.40 1013.51 1014.31 1014.67 1015.27 1015.98 1017.34 1019.26 1020.20 1020.66 1022.36 1023.59 1024.06 1023.94 1023.82 1024.16 1024.03 1024.46 1024.62 1025.10 1025.22
1020.14 1019.69 1019.00 1018.68 1018.09 1017.50 1016.82 1016.37 1015.88 1015.03 1014.07 1013.64 1013.01 1012.32 1012.16 1011.52 1011.46 1012.44 1012.35 1013.15 1013.46 1013.90 1015.00 1016.02 1017.24 1017.88 1019.04 1021.52 1022.81 1023.57 1023.88 1024.07 1023.92 1024.14 1024.57 1024.69 1024.77 1025.02
1019.79 1019.02 1018.20 1017.82 1017.33 1016.60 1015.98 1015.60 1015.07 1014.08 1013.48 1012.85 1011.80 1011.17 1011.21 1010.40 1010.75 1011.91 1012.54 1012.61 1013.51 1013.99 1015.00 1015.49 1015.75 1016.12 1017.38 1018.38 1020.40 1021.95 1023.09 1023.97 1023.86 1024.01 1024.57 1025.31 1025.37 1025.55
1018.96 1018.25 1017.62 1016.90 1016.51 1015.81 1015.12 1014.51 1014.10 1013.31 1012.66 1011.82 1010.68 1009.95 1010.08 1009.55 1010.01 1010.76 1011.41 1011.98 1013.13 1014.50 1015.35 1015.34 1015.53 1015.34 1016.60 1017.67 1018.19 1020.53 1021.60 1022.46 1023.67 1024.04 1024.54 1025.08 1025.30 1025.51
1017.69 1016.85 1016.71 1016.11 1015.51 1014.93 1014.35 1013.87 1013.20 1012.38 1012.03 1010.98 1009.72 1008.90 1009.41 1008.91 1008.93 1009.57 1009.96 1010.86 1011.90 1013.80 1014.97 1015.81 1016.15 1015.74 1015.99 1017.10 1018.77 1019.42 1020.64 1021.77 1022.98 1023.81 1024.22 1025.02 1025.58 1025.53
1016.83 1016.04 1015.76 1015.19 1014.65 1014.12 1013.55 1012.84 1012.39 1011.58 1010.76 1010.04 1008.62 1007.99 1008.05 1008.39 1008.28 1008.95 1009.25 1009.56 1010.55 1012.45 1013.74 1014.93 1015.34 1015.61 1016.66 1017.99 1017.75 1018.67 1020.32 1021.47 1022.60 1023.32 1023.62 1024.73 1025.72 1025.59
1016.01 1015.50 1014.91 1014.50 1013.93 1013.32 1012.53 1012.02 1011.27 1010.65 1009.82 1009.10 1008.57 1007.04 1006.98 1007.11 1007.52 1008.12 1008.49 1008.70 1009.82 1011.21 1012.60 1013.27 1013.72 1013.82 1015.65 1017.24 1018.97 1018.56 1019.24 1020.85 1022.29 1023.26 1023.46 1023.89 1024.85 1025.12
1015.61 1014.93 1014.28 1013.80 1013.35 1012.79 1012.12 1011.55 1010.75 1009.98 1008.98 1008.26 1007.66 1006.57 1005.67 1006.30 1006.99 1007.09 1007.90 1007.85 1008.96 1009.85 1011.42 1012.19 1012.74 1012.94 1013.15 1014.59 1017.67 1019.01 1019.18 1019.97 1021.20 1022.40 1023.53 1024.22 1024.52 1024.83
1015.13 1014.33 1013.60 1013.10 1012.68 1012.22 1011.50 1010.85 1010.20 1009.43 1008.60 1007.95 1006.95 1006.03 1004.61 1005.12 1005.68 1006.06 1006.98 1006.85 1008.01 1008.72 1009.35 1010.25 1011.26 1012.80 1013.43 1014.30 1016.67 1019.40 1020.53 1020.31 1021.11 1021.46 1022.64 1023.95 1024.37 1024.87
1014.04 1013.49 1012.90 1012.48 1011.97 1011.30 1010.63 1010.18 1009.48 1008.72 1007.85 1007.18 1006.50 1005.80 1004.22 1003.62 1004.62 1005.16 1005.75 1006.06 1007.13 1007.14 1007.76 1009.58 1011.51 1012.62 1012.83 1013.83 1015.82 1018.19 1020.12 1021.17 1021.10 1021.94 1021.97 1022.34 1022.68 1023.58
1013.12 1012.59 1012.14 1011.54 1010.85 1010.29 1009.76 1009.32 1008.66 1007.80 1007.04 1006.29 1005.48 1004.67 1002.93 1002.65 1003.02 1003.93 1004.52 1005.02 1005.91 1007.06 1007.42 1009.54 1011.23 1012.27 1013.06 1014.00 1015.46 1017.58 1019.35 1020.90 1021.57 1022.09 1022.84 1022.63 1022.51 1022.30
Wind_Speed
10 10 8 7 8 10 5 5 4 3 6 4 5 7 8 7 10 11 10 15 17 16 15 11 7 8 8 5 2 2 3 4 5 7 9 11 12 15
8 12 10 8 9 7 9 7 7 6 4 6 6 2 6 6 9 12 11 13 17 17 15 12 8 9 9 6 4 4 3 3 4 6 8 10 12 14
9 10 12 12 10 8 10 9 8 7 9 7 3 4 5 6 5 8 7 9 8 16 16 13 11 10 9 7 6 6 5 5 3 4 7 9 11 13
10 11 13 9 12 10 6 16 9 8 7 13 4 4 5 5 5 8 6 6 7 12 14 13 12 12 11 9 8 8 8 7 5 3 6 8 10 11
11 11 12 12 13 9 12 10 11 5 6 3 4 0 1 2 3 2 3 3 5 9 13 13 13 12 12 11 11 11 9 9 6 4 5 8 9 10
12 12 11 11 12 12 11 12 13 8 8 5 3 3 2 1 3 3 3 2 3 3 6 8 10 12 12 12 13 12 10 9 6 5 6 7 7 10
13 12 11 12 18 18 10 13 12 11 7 9 5 2 3 2 8 4 4 3 1 3 3 3 4 3 4 10 11 14 12 9 7 7 6 6 8 9
15 13 12 18 15 20 21 22 19 13 15 9 9 9 13 7 4 5 4 4 4 5 3 3 3 3 4 4 11 16 14 10 9 8 7 7 9 8
14 15 13 11 16 12 18 20 21 21 22 16 13 15 13 13 8 6 7 4 3 3 5 3 3 3 2 5 15 16 14 11 11 10 9 7 8 8
13 14 15 15 13 15 15 15 13 13 13 13 16 15 15 11 15 12 6 4 4 1 4 4 3 2 2 1 14 15 13 12 11 11 10 9 8 8
11 12 13 15 21 23 16 16 14 15 11 17 25 20 11 15 14 10 10 10 3 4 4 5 3 4 2 2 3 12 11 12 12 12 11 10 9 8
10 11 17 19 24 24 16 15 13 12 12 12 13 18 12 18 25 16 12 11 4 2 6 5 6 6 3 1 2 2 3 11 11 12 11 10 9 3
9 9 9 22 25 25 25 14 15 16 17 13 11 12 11 11 12 14 13 12 9 3 8 6 5 4 3 5 3 3 3 4 2 6 11 12 9 6
11 10 11 23 26 28 24 26 29 24 9 10 11 11 12 11 12 14 15 11 5 3 14 9 7 7 6 4 5 4 2 3 4 4 3 8 10 9
11 17 27 27 28 22 24 26 26 12 10 11 12 13 14 12 12 8 6 8 6 5 9 3 4 11 4 5 8 6 8 4 3 4 4 3 3 1
17 14 18 24 28 22 20 15 10 11 11 12 12 11 12 9 11 10 8 10 7 3 3 4 2 9 5 4 5 12 4 7 6 4 4 3 3 3
21 11 11 11 10 10 10 10 11 11 11 12 12 10 8 8 10 11 10 10 10 7 6 3 5 9 9 5 7 8 8 5 7 8 4 3 1 2
15 12 12 10 11 11 11 11 11 15 11 10 12 10 10 11 10 8 9 13 13 9 7 6 8 7 3 7 9 10 3 6 7 7 7 4 2 2
12 11 11 11 11 12 10 10 11 11 12 11 12 10 9 10 14 11 11 12 13 11 11 9 11 10 7 4 1 6 6 7 9 6 2 2 5 4
11 11 12 11 10 11 11 11 11 12 12 11 9 13 11 11 10 11 13 14 13 13 11 10 10 10 14 13 8 1 5 10 9 9 4 2 3 7
11 12 11 10 10 11 12 11 12 12 12 12 12 13 11 12 12 12 14 22 20 14 17 15 10 12 10 9 8 4 2 10 2 8 6 4 3 2
10 12 11 11 12 12 11 11 11 12 12 12 12 12 12 13 14 13 14 15 15 14 12 10 10 9 3 3 11 11 5 2 10 14 8 4 7 7
12 12 12 12 12 12 11 11 12 12 13 13 11 12 12 13 14 14 15 15 14 12 14 12 7 3 2 7 14 13 11 11 5 7 3 7 7 10
Wind_Direction
308 303 296 303 301 300 214 198 178 239 236 244 237 205 205 200 199 201 200 203 202 208 218 225 222 166 160 172 151 76 55 20 27 14 10 9 3 6
317 316 314 309 303 303 278 223 213 208 250 213 226 184 198 203 203 199 199 194 199 204 205 206 197 186 181 183 170 126 110 64 39 22 15 11 10 12
309 306 308 314 301 305 327 256 229 213 235 257 236 197 202 193 195 204 190 197 200 206 203 201 200 196 194 189 165 147 144 113 80 41 21 21 19 14
304 306 307 305 301 308 300 297 225 202 224 246 212 202 201 208 174 192 194 196 191 201 199 192 194 197 189 184 159 157 143 128 118 66 40 33 31 18
303 298 300 308 307 317 316 305 271 199 195 202 238 299 138 186 122 124 186 184 195 191 197 192 194 193 186 170 161 157 147 137 140 99 64 49 36 37
297 295 288 290 299 308 313 311 309 261 193 195 182 215 200 191 123 154 182 181 168 168 188 178 182 181 178 162 157 149 146 148 145 113 80 64 56 50
300 293 294 289 292 294 292 290 290 308 236 203 199 182 205 183 197 178 181 128 192 155 144 161 136 139 161 154 150 148 150 155 139 112 95 78 77 65
305 301 298 298 290 291 290 291 284 277 291 217 211 223 217 219 168 169 144 134 211 188 123 147 110 151 141 137 162 154 152 158 140 121 104 97 86 80
300 302 303 299 302 292 289 287 288 278 282 257 217 211 216 200 176 182 189 158 184 187 111 138 102 128 135 160 163 158 152 158 145 126 116 112 97 91
291 297 297 296 290 290 288 283 285 284 282 272 237 227 224 189 183 183 170 113 69 151 133 144 132 115 95 120 163 163 160 159 143 132 131 126 109 102
290 290 289 292 294 295 293 278 280 279 275 277 265 245 202 166 166 142 168 173 174 201 200 115 151 107 116 131 171 171 172 157 144 139 141 127 119 111
293 296 302 299 298 299 299 295 293 295 317 287 292 239 209 178 174 186 171 189 154 116 195 111 142 149 144 167 181 181 190 150 145 138 147 129 133 130
290 297 294 295 294 291 294 297 293 298 297 291 282 278 214 194 189 194 185 191 184 179 170 128 154 164 85 132 154 202 183 133 128 130 150 141 139 135
300 292 290 294 294 295 295 290 289 288 280 279 268 267 241 200 194 198 190 196 186 172 169 169 155 171 135 139 159 164 180 155 149 147 144 145 126 119
284 284 291 293 294 291 288 287 289 282 272 271 254 252 258 210 193 183 130 116 99 71 186 184 218 158 151 126 152 159 139 196 166 145 132 150 154 115
283 282 282 286 291 285 288 287 274 271 266 259 250 247 263 195 180 178 178 168 167 112 33 36 155 155 135 123 133 150 155 160 157 145 123 104 109 107
290 288 288 283 282 280 275 271 273 266 260 268 248 234 236 203 184 184 180 168 176 160 157 81 81 88 73 114 119 151 148 118 152 149 126 114 59 112
284 281 278 281 281 280 278 278 271 271 266 276 257 235 210 206 187 183 183 179 179 167 161 158 152 113 68 48 50 137 100 124 150 151 134 108 92 214
278 278 278 281 279 272 276 278 273 264 270 265 285 238 203 205 189 187 189 180 186 170 172 163 168 154 155 122 312 55 127 139 150 149 106 112 154 186
275 275 274 274 279 277 277 275 274 275 274 278 278 260 196 193 192 187 192 183 182 173 165 168 180 186 176 161 151 137 162 146 164 152 129 83 91 141
269 266 264 272 274 275 270 273 277 277 277 274 271 282 202 189 201 190 191 183 179 179 173 175 177 115 110 106 95 102 39 147 136 155 138 107 115 109
265 272 271 272 270 268 270 272 273 273 274 272 271 276 229 192 197 192 190 181 185 184 167 132 132 144 110 128 145 135 126 66 113 119 93 110 165 163
266 265 267 266 265 268 267 267 269 269 270 270 274 277 238 199 199 196 191 185 176 174 151 141 136 82 73 132 143 143 137 135 142 125 50 55 85 93